User: anonymous   Login
Location: Wallasey
(53.4265°N, 3.0662°W)
Time: 13:19:31
(UTC+01:00)
Language:

PCSat - Orbit

View from above orbital plane
View from above orbital plane
View from above satellite
View from above satellite

Ground track
Ground track

The orbit data is extracted from the following two-line orbital elements,

1 26931U 01043C   19230.95522893 -.00000068 +00000-0 +55833-5 0  9991
2 26931 067.0499 205.5895 0007470 274.2134 085.8113 14.30549602933660
Epoch (UTC): 18 August 2019 22:55:31
Eccentricity: 0.0007470
inclination: 67.0499°
perigee height: 784 km
apogee height: 795 km
right ascension of ascending node: 205.5895°
argument of perigee: 274.2134°
revolutions per day: 14.30549602
mean anomaly at epoch: 85.8113°
orbit number at epoch: 93366

The dashed part of the orbit path shows where the satellite is in the earth's shadow,  

DLR